Tracking 31027 objects as of 18-Jul-2025
HD Live streaming from Space Station
objects crossing your sky now

MOLNIYA 3-27

Track MOLNIYA 3-27 now!
MOLNIYA 3-27 is classified as:


NORAD ID: 16393
Int'l Code: 1985-117A
Perigee: 905.4 km
Apogee: 37,479.8 km
Inclination: 62.4 °
Period: 677.9 minutes
Semi major axis: 25563 km
RCS: 15.138 m2 (large)
Launch date: December 24, 1985
Source: Commonwealth of Independent States (former USSR) (CIS)
Launch site: PLESETSK MISSILE AND SPACE COMPLEX (PKMTR)
Your satellite tracking list
Your tracking list is empty




NASA's NSSDC Master Catalog

Two Line Element Set (TLE):
1 16393U 85117A   25197.92652905  .00000193  00000-0  61596-2 0  9998
2 16393  62.3992 275.9779 7153597 248.3477  25.8769  2.12407201298109
Source of the keplerian elements: AFSPC